TimeMST,TemperatureF,Dew PointF,Humidity,Sea Level PressureIn,VisibilityMPH,Wind Direction,Wind SpeedMPH,Gust SpeedMPH,PrecipitationIn,Events,Conditions,WindDirDegrees,DateUTC
12:48 AM,32.0,25.0,75,29.69,-9999.0,West,5.8,-,N/A,,Unknown,280,2013-11-15 07:48:00
1:48 AM,28.9,24.1,82,29.67,-9999.0,West,4.6,-,N/A,,Unknown,280,2013-11-15 08:48:00
2:48 AM,27.0,23.0,85,29.66,-9999.0,WSW,3.5,-,N/A,,Unknown,240,2013-11-15 09:48:00
3:48 AM,27.0,23.0,85,29.64,-9999.0,WNW,4.6,-,N/A,,Unknown,290,2013-11-15 10:48:00
4:48 AM,26.1,21.9,84,29.64,-9999.0,West,4.6,-,N/A,,Unknown,280,2013-11-15 11:48:00
5:48 AM,25.0,21.0,85,29.64,-9999.0,West,5.8,-,N/A,,Unknown,280,2013-11-15 12:48:00
6:48 AM,23.0,19.9,88,29.63,-9999.0,Calm,Calm,-,N/A,,Unknown,0,2013-11-15 13:48:00
7:48 AM,24.1,19.9,84,29.63,-9999.0,WNW,4.6,-,N/A,,Unknown,290,2013-11-15 14:48:00
8:48 AM,32.0,25.0,75,29.60,-9999.0,WNW,3.5,-,N/A,,Unknown,300,2013-11-15 15:48:00
9:48 AM,39.9,27.0,60,29.57,-9999.0,West,6.9,-,N/A,,Unknown,260,2013-11-15 16:48:00
10:48 AM,46.9,24.1,41,29.53,-9999.0,WSW,15.0,-,N/A,,Unknown,250,2013-11-15 17:48:00
11:48 AM,48.0,21.9,36,29.49,-9999.0,West,17.3,-,N/A,,Unknown,260,2013-11-15 18:48:00
12:48 PM,48.9,21.9,35,29.46,-9999.0,West,15.0,25.3,N/A,,Unknown,280,2013-11-15 19:48:00
1:48 PM,50.0,21.9,33,29.44,-9999.0,West,16.1,24.2,N/A,,Unknown,280,2013-11-15 20:48:00
2:48 PM,50.0,21.0,32,29.42,-9999.0,West,13.8,-,N/A,,Unknown,270,2013-11-15 21:48:00
3:48 PM,48.0,23.0,37,29.41,-9999.0,WNW,9.2,-,N/A,,Unknown,290,2013-11-15 22:48:00
4:48 PM,42.1,24.1,49,29.43,-9999.0,Calm,Calm,-,N/A,,Unknown,0,2013-11-15 23:48:00
5:48 PM,39.9,26.1,58,29.42,-9999.0,Calm,Calm,-,N/A,,Unknown,0,2013-11-16 00:48:00
6:48 PM,39.0,27.0,62,29.42,-9999.0,Calm,Calm,-,N/A,,Unknown,0,2013-11-16 01:48:00
7:48 PM,42.1,28.0,58,29.42,-9999.0,WNW,11.5,-,N/A,,Unknown,300,2013-11-16 02:48:00
8:48 PM,39.9,28.9,65,29.42,-9999.0,NNW,6.9,-,N/A,,Unknown,340,2013-11-16 03:48:00
9:48 PM,37.9,30.0,73,29.39,-9999.0,Calm,Calm,-,N/A,,Unknown,0,2013-11-16 04:48:00
10:48 PM,36.0,28.9,76,29.37,-9999.0,Calm,Calm,-,N/A,,Unknown,0,2013-11-16 05:48:00
11:48 PM,36.0,28.9,76,29.35,-9999.0,Calm,Calm,-,N/A,,Unknown,0,2013-11-16 06:48:00